Year,Month,Day,Hour,Minute,Value (Times are PST for temperature in C)
2018,06,17,00,00,23.80
2018,06,17,00,01,23.70
2018,06,17,00,02,23.70
2018,06,17,00,03,23.60
2018,06,17,00,04,23.50
2018,06,17,00,05,23.30
2018,06,17,00,06,23.10
2018,06,17,00,07,22.80
2018,06,17,00,08,22.60
2018,06,17,00,09,22.40
2018,06,17,00,10,22.10
2018,06,17,00,11,21.80
2018,06,17,00,12,21.60
2018,06,17,00,13,21.40
2018,06,17,00,14,21.30
2018,06,17,00,15,21.10
2018,06,17,00,16,21.00
2018,06,17,00,17,20.90
2018,06,17,00,18,20.80
2018,06,17,00,19,20.70
2018,06,17,00,20,20.50
2018,06,17,00,21,20.50
2018,06,17,00,22,20.40
2018,06,17,00,23,20.30
2018,06,17,00,24,20.30
2018,06,17,00,25,20.20
2018,06,17,00,26,20.20
2018,06,17,00,27,20.20
2018,06,17,00,28,20.10
2018,06,17,00,29,20.10
2018,06,17,00,30,20.10
2018,06,17,00,31,20.10
2018,06,17,00,32,20.20
2018,06,17,00,33,20.40
2018,06,17,00,34,20.40
2018,06,17,00,35,20.50
2018,06,17,00,36,20.60
2018,06,17,00,37,20.70
2018,06,17,00,38,20.70
2018,06,17,00,39,20.80
2018,06,17,00,40,20.90
2018,06,17,00,41,21.10
2018,06,17,00,42,21.10
2018,06,17,00,43,21.30
2018,06,17,00,44,21.30
2018,06,17,00,45,21.40
2018,06,17,00,46,21.60
2018,06,17,00,47,21.80
2018,06,17,00,48,21.90
2018,06,17,00,49,22.00
2018,06,17,00,50,22.10
2018,06,17,00,51,22.20
2018,06,17,00,52,22.30
2018,06,17,00,53,22.30
2018,06,17,00,54,22.40
2018,06,17,00,55,22.40
2018,06,17,00,56,22.50
2018,06,17,00,57,22.50
2018,06,17,00,58,22.60
2018,06,17,00,59,22.60
2018,06,17,01,00,22.60
2018,06,17,01,01,22.50
2018,06,17,01,02,22.50
2018,06,17,01,03,22.40
2018,06,17,01,04,22.40
2018,06,17,01,05,22.40
2018,06,17,01,06,22.30
2018,06,17,01,07,22.30
2018,06,17,01,08,22.20
2018,06,17,01,09,22.20
2018,06,17,01,10,22.10
2018,06,17,01,11,22.00
2018,06,17,01,12,21.80
2018,06,17,01,13,21.70
2018,06,17,01,14,21.60
2018,06,17,01,15,21.50
2018,06,17,01,16,21.40
2018,06,17,01,17,21.30
2018,06,17,01,18,21.20
2018,06,17,01,19,21.10
2018,06,17,01,20,21.00
2018,06,17,01,21,20.90
2018,06,17,01,22,20.80
2018,06,17,01,23,20.60
2018,06,17,01,24,20.60
2018,06,17,01,25,20.50
2018,06,17,01,26,20.40
2018,06,17,01,27,20.30
2018,06,17,01,28,20.20
2018,06,17,01,29,20.10
2018,06,17,01,30,20.10
2018,06,17,01,31,20.00
2018,06,17,01,32,19.90
2018,06,17,01,33,19.80
2018,06,17,01,34,19.80
2018,06,17,01,35,19.70
2018,06,17,01,36,19.70
2018,06,17,01,37,19.60
2018,06,17,01,38,19.60
2018,06,17,01,39,19.50
2018,06,17,01,40,19.40
2018,06,17,01,41,19.30
2018,06,17,01,42,19.20
2018,06,17,01,43,19.20
2018,06,17,01,44,19.10
2018,06,17,01,45,19.00
2018,06,17,01,46,19.00
2018,06,17,01,47,18.90
2018,06,17,01,48,18.90
2018,06,17,01,49,18.90
2018,06,17,01,50,18.80
2018,06,17,01,51,18.80
2018,06,17,01,52,18.70
2018,06,17,01,53,18.70
2018,06,17,01,54,18.60
2018,06,17,01,55,18.50
2018,06,17,01,56,18.50
2018,06,17,01,57,18.40
2018,06,17,01,58,18.40
2018,06,17,01,59,18.40
2018,06,17,02,00,18.40
2018,06,17,02,01,18.50
2018,06,17,02,02,18.60
2018,06,17,02,03,18.60
2018,06,17,02,04,18.60
2018,06,17,02,05,18.50
2018,06,17,02,06,18.50
2018,06,17,02,07,18.70
2018,06,17,02,08,18.90
2018,06,17,02,09,19.10
2018,06,17,02,10,19.30
2018,06,17,02,11,19.40
2018,06,17,02,12,19.50
2018,06,17,02,13,19.60
2018,06,17,02,14,19.60
2018,06,17,02,15,19.60
2018,06,17,02,16,19.60
2018,06,17,02,17,19.70
2018,06,17,02,18,19.80
2018,06,17,02,19,20.00
2018,06,17,02,20,20.10
2018,06,17,02,21,20.10
2018,06,17,02,22,20.20
2018,06,17,02,23,20.20
2018,06,17,02,24,20.20
2018,06,17,02,25,20.20
2018,06,17,02,26,20.20
2018,06,17,02,27,20.20
2018,06,17,02,28,20.30
2018,06,17,02,29,20.30
2018,06,17,02,30,20.30
2018,06,17,02,31,20.30
2018,06,17,02,32,20.30
2018,06,17,02,33,20.40
2018,06,17,02,34,20.30
2018,06,17,02,35,20.40
2018,06,17,02,36,20.30
2018,06,17,02,37,20.30
2018,06,17,02,38,20.30
2018,06,17,02,39,20.30
2018,06,17,02,40,20.20
2018,06,17,02,41,20.20
2018,06,17,02,42,20.20
2018,06,17,02,43,20.20
2018,06,17,02,44,20.20
2018,06,17,02,45,20.20
2018,06,17,02,46,20.20
2018,06,17,02,47,20.20
2018,06,17,02,48,20.10
2018,06,17,02,49,20.10
2018,06,17,02,50,20.10
2018,06,17,02,51,20.10
2018,06,17,02,52,20.10
2018,06,17,02,53,20.10
2018,06,17,02,54,20.00
2018,06,17,02,55,20.10
2018,06,17,02,56,20.00
2018,06,17,02,57,20.10
2018,06,17,02,58,20.10
2018,06,17,02,59,20.10
2018,06,17,03,00,20.20
2018,06,17,03,01,20.20
2018,06,17,03,02,20.20
2018,06,17,03,03,20.20
2018,06,17,03,04,20.20
2018,06,17,03,05,20.20
2018,06,17,03,06,20.20
2018,06,17,03,07,20.20
2018,06,17,03,08,20.20
2018,06,17,03,09,20.20
2018,06,17,03,10,20.20
2018,06,17,03,11,20.10
2018,06,17,03,12,20.10
2018,06,17,03,13,20.00
2018,06,17,03,14,19.90
2018,06,17,03,15,19.90
2018,06,17,03,16,19.90
2018,06,17,03,17,19.80
2018,06,17,03,18,19.90
2018,06,17,03,19,19.80
2018,06,17,03,20,19.80
2018,06,17,03,21,19.80
2018,06,17,03,22,19.80
2018,06,17,03,23,19.80
2018,06,17,03,24,19.80
2018,06,17,03,25,19.70
2018,06,17,03,26,19.70
2018,06,17,03,27,19.70
2018,06,17,03,28,19.60
2018,06,17,03,29,19.60
2018,06,17,03,30,19.60
2018,06,17,03,31,19.60
2018,06,17,03,32,19.60
2018,06,17,03,33,19.70
2018,06,17,03,34,19.70
2018,06,17,03,35,19.70
2018,06,17,03,36,19.70
2018,06,17,03,37,19.70
2018,06,17,03,38,19.70
2018,06,17,03,39,19.70
2018,06,17,03,40,19.70
2018,06,17,03,41,19.70
2018,06,17,03,42,19.70
2018,06,17,03,43,19.70
2018,06,17,03,44,19.70
2018,06,17,03,45,19.70
2018,06,17,03,46,19.70
2018,06,17,03,47,19.70
2018,06,17,03,48,19.70
2018,06,17,03,49,19.70
2018,06,17,03,50,19.70
2018,06,17,03,51,19.70
2018,06,17,03,52,19.70
2018,06,17,03,53,19.70
2018,06,17,03,54,19.70
2018,06,17,03,55,19.70
2018,06,17,03,56,19.60
2018,06,17,03,57,19.60
2018,06,17,03,58,19.60
2018,06,17,03,59,19.50
2018,06,17,04,00,19.50
2018,06,17,04,01,19.40
2018,06,17,04,02,19.40
2018,06,17,04,03,19.40
2018,06,17,04,04,19.40
2018,06,17,04,05,19.40
2018,06,17,04,06,19.50
2018,06,17,04,07,19.40
2018,06,17,04,08,19.40
2018,06,17,04,09,19.50
2018,06,17,04,10,19.50
2018,06,17,04,11,19.40
2018,06,17,04,12,19.40
2018,06,17,04,13,19.40
2018,06,17,04,14,19.30
2018,06,17,04,15,19.30
2018,06,17,04,16,19.30
2018,06,17,04,17,19.20
2018,06,17,04,18,19.20
2018,06,17,04,19,19.30
2018,06,17,04,20,19.30
2018,06,17,04,21,19.30
2018,06,17,04,22,19.30
2018,06,17,04,23,19.30
2018,06,17,04,24,19.30
2018,06,17,04,25,19.30
2018,06,17,04,26,19.30
2018,06,17,04,27,19.40
2018,06,17,04,28,19.50
2018,06,17,04,29,19.50
2018,06,17,04,30,19.40
2018,06,17,04,31,19.40
2018,06,17,04,32,19.40
2018,06,17,04,33,19.40
2018,06,17,04,34,19.40
2018,06,17,04,35,19.40
2018,06,17,04,36,19.50
2018,06,17,04,37,19.50
2018,06,17,04,38,19.50
2018,06,17,04,39,19.50
2018,06,17,04,40,19.50
2018,06,17,04,41,19.50
2018,06,17,04,42,19.50
2018,06,17,04,43,19.50
2018,06,17,04,44,19.50
2018,06,17,04,45,19.50
2018,06,17,04,46,19.50
2018,06,17,04,47,19.50
2018,06,17,04,48,19.50
2018,06,17,04,49,19.50
2018,06,17,04,50,19.50
2018,06,17,04,51,19.60
2018,06,17,04,52,19.60
2018,06,17,04,53,19.50
2018,06,17,04,54,19.50
2018,06,17,04,55,19.50
2018,06,17,04,56,19.40
2018,06,17,04,57,19.40
2018,06,17,04,58,19.40
2018,06,17,04,59,19.30
2018,06,17,05,00,19.30
2018,06,17,05,01,19.30
2018,06,17,05,02,19.30
2018,06,17,05,03,19.30
2018,06,17,05,04,19.30
2018,06,17,05,05,19.30
2018,06,17,05,06,19.30
2018,06,17,05,07,19.30
2018,06,17,05,08,19.20
2018,06,17,05,09,19.20
2018,06,17,05,10,19.20
2018,06,17,05,11,19.20
2018,06,17,05,12,19.30
2018,06,17,05,13,19.30
2018,06,17,05,14,19.30
2018,06,17,05,15,19.30
2018,06,17,05,16,19.20
2018,06,17,05,17,19.20
2018,06,17,05,18,19.20
2018,06,17,05,19,19.20
2018,06,17,05,20,19.20
2018,06,17,05,21,19.10
2018,06,17,05,22,19.10
2018,06,17,05,23,19.10
2018,06,17,05,24,19.10
2018,06,17,05,25,19.10
2018,06,17,05,26,19.00
2018,06,17,05,27,19.00
2018,06,17,05,28,19.00
2018,06,17,05,29,18.90
2018,06,17,05,30,18.90
2018,06,17,05,31,19.00
2018,06,17,05,32,19.00
2018,06,17,05,33,19.00
2018,06,17,05,34,19.00
2018,06,17,05,35,19.00
2018,06,17,05,36,19.00
2018,06,17,05,37,19.00
2018,06,17,05,38,18.90
2018,06,17,05,39,18.90
2018,06,17,05,40,18.90
2018,06,17,05,41,18.90
2018,06,17,05,42,18.80
2018,06,17,05,43,18.80
2018,06,17,05,44,18.80
2018,06,17,05,45,18.80
2018,06,17,05,46,18.80
2018,06,17,05,47,18.80
2018,06,17,05,48,18.80
2018,06,17,05,49,18.80
2018,06,17,05,50,18.80
2018,06,17,05,51,18.80
2018,06,17,05,52,18.70
2018,06,17,05,53,18.70
2018,06,17,05,54,18.70
2018,06,17,05,55,18.70
2018,06,17,05,56,18.70
2018,06,17,05,57,18.60
2018,06,17,05,58,18.60
2018,06,17,05,59,18.60
2018,06,17,06,00,18.60
2018,06,17,06,01,18.70
2018,06,17,06,02,18.70
2018,06,17,06,03,18.70
2018,06,17,06,04,18.80
2018,06,17,06,05,18.80
2018,06,17,06,06,18.80
2018,06,17,06,07,18.90
2018,06,17,06,08,18.90
2018,06,17,06,09,18.90
2018,06,17,06,10,18.90
2018,06,17,06,11,18.90
2018,06,17,06,12,18.90
2018,06,17,06,13,19.00
2018,06,17,06,14,19.00
2018,06,17,06,15,19.00
2018,06,17,06,16,18.90
2018,06,17,06,17,19.00
2018,06,17,06,18,19.00
2018,06,17,06,19,19.00
2018,06,17,06,20,19.00
2018,06,17,06,21,19.00
2018,06,17,06,22,19.00
2018,06,17,06,23,19.00
2018,06,17,06,24,19.00
2018,06,17,06,25,19.00
2018,06,17,06,26,18.90
2018,06,17,06,27,18.90
2018,06,17,06,28,18.90
2018,06,17,06,29,18.90
2018,06,17,06,30,18.90
2018,06,17,06,31,18.90
2018,06,17,06,32,18.90
2018,06,17,06,33,18.80
2018,06,17,06,34,18.80
2018,06,17,06,35,18.80
2018,06,17,06,36,18.80
2018,06,17,06,37,18.80
2018,06,17,06,38,18.80
2018,06,17,06,39,18.80
2018,06,17,06,40,18.80
2018,06,17,06,41,18.80
2018,06,17,06,42,18.80
2018,06,17,06,43,18.70
2018,06,17,06,44,18.70
2018,06,17,06,45,18.70
2018,06,17,06,46,18.70
2018,06,17,06,47,18.70
2018,06,17,06,48,18.70
2018,06,17,06,49,18.60
2018,06,17,06,50,18.60
2018,06,17,06,51,18.60
2018,06,17,06,52,18.60
2018,06,17,06,53,18.60
2018,06,17,06,54,18.50
2018,06,17,06,55,18.60
2018,06,17,06,56,18.60
2018,06,17,06,57,18.60
2018,06,17,06,58,18.60
2018,06,17,06,59,18.60
2018,06,17,07,00,18.60
2018,06,17,07,01,18.60
2018,06,17,07,02,18.70
2018,06,17,07,03,18.70
2018,06,17,07,04,18.80
2018,06,17,07,05,18.80
2018,06,17,07,06,18.80
2018,06,17,07,07,18.80
2018,06,17,07,08,18.80
2018,06,17,07,09,18.90
2018,06,17,07,10,18.90
2018,06,17,07,11,18.90
2018,06,17,07,12,18.90
2018,06,17,07,13,18.90
2018,06,17,07,14,19.00
2018,06,17,07,15,19.00
2018,06,17,07,16,19.00
2018,06,17,07,17,19.00
2018,06,17,07,18,19.00
2018,06,17,07,19,19.00
2018,06,17,07,20,19.00
2018,06,17,07,21,18.90
2018,06,17,07,22,18.90
2018,06,17,07,23,18.90
2018,06,17,07,24,18.90
2018,06,17,07,25,18.80
2018,06,17,07,26,18.80
2018,06,17,07,27,18.70
2018,06,17,07,28,18.70
2018,06,17,07,29,18.60
2018,06,17,07,30,18.60
2018,06,17,07,31,18.50
2018,06,17,07,32,18.40
2018,06,17,07,33,18.40
2018,06,17,07,34,18.40
2018,06,17,07,35,18.30
2018,06,17,07,36,18.30
2018,06,17,07,37,18.30
2018,06,17,07,38,18.30
2018,06,17,07,39,18.30
2018,06,17,07,40,18.30
2018,06,17,07,41,18.30
2018,06,17,07,42,18.40
2018,06,17,07,43,18.40
2018,06,17,07,44,18.40
2018,06,17,07,45,18.40
2018,06,17,07,46,18.40
2018,06,17,07,47,18.40
2018,06,17,07,48,18.40
2018,06,17,07,49,18.50
2018,06,17,07,50,18.50
2018,06,17,07,51,18.50
2018,06,17,07,52,18.50
2018,06,17,07,53,18.50
2018,06,17,07,54,18.50
2018,06,17,07,55,18.50
2018,06,17,07,56,18.50
2018,06,17,07,57,18.50
2018,06,17,07,58,18.50
2018,06,17,07,59,18.50
2018,06,17,08,00,18.50
2018,06,17,08,01,18.60
2018,06,17,08,02,18.60
2018,06,17,08,03,18.60
2018,06,17,08,04,18.60
2018,06,17,08,05,18.70
2018,06,17,08,06,18.70
2018,06,17,08,07,18.70
2018,06,17,08,08,18.70
2018,06,17,08,09,18.70
2018,06,17,08,10,18.70
2018,06,17,08,11,18.70
2018,06,17,08,12,18.70
2018,06,17,08,13,18.70
2018,06,17,08,14,18.70
2018,06,17,08,15,18.70
2018,06,17,08,16,18.70
2018,06,17,08,17,18.70
2018,06,17,08,18,18.70
2018,06,17,08,19,18.70
2018,06,17,08,20,18.70
2018,06,17,08,21,18.70
2018,06,17,08,22,18.70
2018,06,17,08,23,18.70
2018,06,17,08,24,18.60
2018,06,17,08,25,18.60
2018,06,17,08,26,18.60
2018,06,17,08,27,18.60
2018,06,17,08,28,18.60
2018,06,17,08,29,18.60
2018,06,17,08,30,18.60
2018,06,17,08,31,18.60
2018,06,17,08,32,18.60
2018,06,17,08,33,18.60
2018,06,17,08,34,18.60
2018,06,17,08,35,18.60
2018,06,17,08,36,18.60
2018,06,17,08,37,18.60
2018,06,17,08,38,18.60
2018,06,17,08,39,18.70
2018,06,17,08,40,18.70
2018,06,17,08,41,18.80
2018,06,17,08,42,18.80
2018,06,17,08,43,18.90
2018,06,17,08,44,18.90
2018,06,17,08,45,19.00
2018,06,17,08,46,19.10
2018,06,17,08,47,19.10
2018,06,17,08,48,19.10
2018,06,17,08,49,19.20
2018,06,17,08,50,19.20
2018,06,17,08,51,19.20
2018,06,17,08,52,19.30
2018,06,17,08,53,19.30
2018,06,17,08,54,19.30
2018,06,17,08,55,19.30
2018,06,17,08,56,19.30
2018,06,17,08,57,19.30
2018,06,17,08,58,19.30
2018,06,17,08,59,19.30
2018,06,17,09,00,19.30
2018,06,17,09,01,19.40
2018,06,17,09,02,19.40
2018,06,17,09,03,19.40
2018,06,17,09,04,19.50
2018,06,17,09,05,19.60
2018,06,17,09,06,19.60
2018,06,17,09,07,19.60
2018,06,17,09,08,19.60
2018,06,17,09,09,19.70
2018,06,17,09,10,19.70
2018,06,17,09,11,19.70
2018,06,17,09,12,19.80
2018,06,17,09,13,19.80
2018,06,17,09,14,19.80
2018,06,17,09,15,19.90
2018,06,17,09,16,19.90
2018,06,17,09,17,19.90
2018,06,17,09,18,20.00
2018,06,17,09,19,20.00
2018,06,17,09,20,20.00
2018,06,17,09,21,20.00
2018,06,17,09,22,20.10
2018,06,17,09,23,20.10
2018,06,17,09,24,20.10
2018,06,17,09,25,20.20
2018,06,17,09,26,20.30
2018,06,17,09,27,20.30
2018,06,17,09,28,20.40
2018,06,17,09,29,20.40
2018,06,17,09,30,20.50
2018,06,17,09,31,20.40
2018,06,17,09,32,20.50
2018,06,17,09,33,20.50
2018,06,17,09,34,20.60
2018,06,17,09,35,20.60
2018,06,17,09,36,20.70
2018,06,17,09,37,20.70
2018,06,17,09,38,20.80
2018,06,17,09,39,20.80
2018,06,17,09,40,20.80
2018,06,17,09,41,20.80
2018,06,17,09,42,20.80
2018,06,17,09,43,20.90
2018,06,17,09,44,21.00
2018,06,17,09,45,21.00
2018,06,17,09,46,21.10
2018,06,17,09,47,21.20
2018,06,17,09,48,21.30
2018,06,17,09,49,21.30
2018,06,17,09,50,21.20
2018,06,17,09,51,21.20
2018,06,17,09,52,21.10
2018,06,17,09,53,21.10
2018,06,17,09,54,21.00
2018,06,17,09,55,21.00
2018,06,17,09,56,21.00
2018,06,17,09,57,21.00
2018,06,17,09,58,21.00
2018,06,17,09,59,20.90
2018,06,17,10,00,20.90
2018,06,17,10,01,21.00
2018,06,17,10,02,21.00
2018,06,17,10,03,21.00
2018,06,17,10,04,21.10
2018,06,17,10,05,21.10
2018,06,17,10,06,21.10
2018,06,17,10,07,21.20
2018,06,17,10,08,21.30
2018,06,17,10,09,21.20
2018,06,17,10,10,21.10
2018,06,17,10,11,21.10
2018,06,17,10,12,21.10
2018,06,17,10,13,21.10
2018,06,17,10,14,21.10
2018,06,17,10,15,21.10
2018,06,17,10,16,21.10
2018,06,17,10,17,21.10
2018,06,17,10,18,21.10
2018,06,17,10,19,21.10
2018,06,17,10,20,21.20
2018,06,17,10,21,21.30
2018,06,17,10,22,21.30
2018,06,17,10,23,21.40
2018,06,17,10,24,21.50
2018,06,17,10,25,21.50
2018,06,17,10,26,21.60
2018,06,17,10,27,21.70
2018,06,17,10,28,21.80
2018,06,17,10,29,21.80
2018,06,17,10,30,21.90
2018,06,17,10,31,21.90
2018,06,17,10,32,22.00
2018,06,17,10,33,22.00
2018,06,17,10,34,22.00
2018,06,17,10,35,22.10
2018,06,17,10,36,22.10
2018,06,17,10,37,22.10
2018,06,17,10,38,22.10
2018,06,17,10,39,22.20
2018,06,17,10,40,22.20
2018,06,17,10,41,22.20
2018,06,17,10,42,22.10
2018,06,17,10,43,22.10
2018,06,17,10,44,22.10
2018,06,17,10,45,22.20
2018,06,17,10,46,22.30
2018,06,17,10,47,22.30
2018,06,17,10,48,22.30
2018,06,17,10,49,22.20
2018,06,17,10,50,22.10
2018,06,17,10,51,22.10
2018,06,17,10,52,22.10
2018,06,17,10,53,22.10
2018,06,17,10,54,22.20
2018,06,17,10,55,22.30
2018,06,17,10,56,22.30
2018,06,17,10,57,22.30
2018,06,17,10,58,22.40
2018,06,17,10,59,22.30
2018,06,17,11,00,22.30
2018,06,17,11,01,22.20
2018,06,17,11,02,22.20
2018,06,17,11,03,22.30
2018,06,17,11,04,22.40
2018,06,17,11,05,22.50
2018,06,17,11,06,22.50
2018,06,17,11,07,22.60
2018,06,17,11,08,22.60
2018,06,17,11,09,22.70
2018,06,17,11,10,22.80
2018,06,17,11,11,22.80
2018,06,17,11,12,22.80
2018,06,17,11,13,22.80
2018,06,17,11,14,22.90
2018,06,17,11,15,22.90
2018,06,17,11,16,22.90
2018,06,17,11,17,23.00
2018,06,17,11,18,23.10
2018,06,17,11,19,23.20
2018,06,17,11,20,23.10
2018,06,17,11,21,23.20
2018,06,17,11,22,23.20
2018,06,17,11,23,23.30
2018,06,17,11,24,23.30
2018,06,17,11,25,23.30
2018,06,17,11,26,23.30
2018,06,17,11,27,23.20
2018,06,17,11,28,23.20
2018,06,17,11,29,23.20
2018,06,17,11,30,23.20
2018,06,17,11,31,23.10
2018,06,17,11,32,23.10
2018,06,17,11,33,23.00
2018,06,17,11,34,23.00
2018,06,17,11,35,22.90
2018,06,17,11,36,22.80
2018,06,17,11,37,22.80
2018,06,17,11,38,22.90
2018,06,17,11,39,23.00
2018,06,17,11,40,23.00
2018,06,17,11,41,23.10
2018,06,17,11,42,23.20
2018,06,17,11,43,23.20
2018,06,17,11,44,23.20
2018,06,17,11,45,23.20
2018,06,17,11,46,23.30
2018,06,17,11,47,23.30
2018,06,17,11,48,23.30
2018,06,17,11,49,23.40
2018,06,17,11,50,23.40
2018,06,17,11,51,23.40
2018,06,17,11,52,23.40
2018,06,17,11,53,23.40
2018,06,17,11,54,23.40
2018,06,17,11,55,23.40
2018,06,17,11,56,23.40
2018,06,17,11,57,23.50
2018,06,17,11,58,23.50
2018,06,17,11,59,23.60
2018,06,17,12,00,23.60
2018,06,17,12,01,23.60
2018,06,17,12,02,23.50
2018,06,17,12,03,23.40
2018,06,17,12,04,23.40
2018,06,17,12,05,23.40
2018,06,17,12,06,23.40
2018,06,17,12,07,23.30
2018,06,17,12,08,23.30
2018,06,17,12,09,23.20
2018,06,17,12,10,23.20
2018,06,17,12,11,23.20
2018,06,17,12,12,23.20
2018,06,17,12,13,23.20
2018,06,17,12,14,23.20
2018,06,17,12,15,23.20
2018,06,17,12,16,23.10
2018,06,17,12,17,23.20
2018,06,17,12,18,23.20
2018,06,17,12,19,23.10
2018,06,17,12,20,23.20
2018,06,17,12,21,23.20
2018,06,17,12,22,23.20
2018,06,17,12,23,23.30
2018,06,17,12,24,23.30
2018,06,17,12,25,23.40
2018,06,17,12,26,23.40
2018,06,17,12,27,23.40
2018,06,17,12,28,23.40
2018,06,17,12,29,23.30
2018,06,17,12,30,23.30
2018,06,17,12,31,23.20
2018,06,17,12,32,23.30
2018,06,17,12,33,23.30
2018,06,17,12,34,23.30
2018,06,17,12,35,23.40
2018,06,17,12,36,23.40
2018,06,17,12,37,23.50
2018,06,17,12,38,23.50
2018,06,17,12,39,23.40
2018,06,17,12,40,23.30
2018,06,17,12,41,23.30
2018,06,17,12,42,23.30
2018,06,17,12,43,23.30
2018,06,17,12,44,23.30
2018,06,17,12,45,23.40
2018,06,17,12,46,23.50
2018,06,17,12,47,23.50
2018,06,17,12,48,23.50
2018,06,17,12,49,23.50
2018,06,17,12,50,23.50
2018,06,17,12,51,23.60
2018,06,17,12,52,23.70
2018,06,17,12,53,23.70
2018,06,17,12,54,23.70
2018,06,17,12,55,23.80
2018,06,17,12,56,23.90
2018,06,17,12,57,23.90
2018,06,17,12,58,23.90
2018,06,17,12,59,23.90
2018,06,17,13,00,23.90
2018,06,17,13,01,23.90
2018,06,17,13,02,23.90
2018,06,17,13,03,24.00
2018,06,17,13,04,24.10
2018,06,17,13,05,24.10
2018,06,17,13,06,24.20
2018,06,17,13,07,24.10
2018,06,17,13,08,24.10
2018,06,17,13,09,24.10
2018,06,17,13,10,24.10
2018,06,17,13,11,24.20
2018,06,17,13,12,24.20
2018,06,17,13,13,24.20
2018,06,17,13,14,24.20
2018,06,17,13,15,24.10
2018,06,17,13,16,24.10
2018,06,17,13,17,24.10
2018,06,17,13,18,24.10
2018,06,17,13,19,24.20
2018,06,17,13,20,24.20
2018,06,17,13,21,24.20
2018,06,17,13,22,24.20
2018,06,17,13,23,24.20
2018,06,17,13,24,24.10
2018,06,17,13,25,24.10
2018,06,17,13,26,24.10
2018,06,17,13,27,24.20
2018,06,17,13,28,24.20
2018,06,17,13,29,24.20
2018,06,17,13,30,24.20
2018,06,17,13,31,24.30
2018,06,17,13,32,24.30
2018,06,17,13,33,24.30
2018,06,17,13,34,24.30
2018,06,17,13,35,24.40
2018,06,17,13,36,24.30
2018,06,17,13,37,24.30
2018,06,17,13,38,24.30
2018,06,17,13,39,24.30
2018,06,17,13,40,24.40
2018,06,17,13,41,24.40
2018,06,17,13,42,24.40
2018,06,17,13,43,24.40
2018,06,17,13,44,24.30
2018,06,17,13,45,24.20
2018,06,17,13,46,24.10
2018,06,17,13,47,24.00
2018,06,17,13,48,23.90
2018,06,17,13,49,23.80
2018,06,17,13,50,23.80
2018,06,17,13,51,23.70
2018,06,17,13,52,23.60
2018,06,17,13,53,23.60
2018,06,17,13,54,23.60
2018,06,17,13,55,23.60
2018,06,17,13,56,23.70
2018,06,17,13,57,23.70
2018,06,17,13,58,23.70
2018,06,17,13,59,23.80
2018,06,17,14,00,23.80
2018,06,17,14,01,23.90
2018,06,17,14,02,24.00
2018,06,17,14,03,24.10
2018,06,17,14,04,24.10
2018,06,17,14,05,24.20
2018,06,17,14,06,24.20
2018,06,17,14,07,24.20
2018,06,17,14,08,24.30
2018,06,17,14,09,24.30
2018,06,17,14,10,24.40
2018,06,17,14,11,24.40
2018,06,17,14,12,24.50
2018,06,17,14,13,24.50
2018,06,17,14,14,24.50
2018,06,17,14,15,24.50
2018,06,17,14,16,24.40
2018,06,17,14,17,24.50
2018,06,17,14,18,24.50
2018,06,17,14,19,24.60
2018,06,17,14,20,24.60
2018,06,17,14,21,24.60
2018,06,17,14,22,24.60
2018,06,17,14,23,24.70
2018,06,17,14,24,24.70
2018,06,17,14,25,24.70
2018,06,17,14,26,24.80
2018,06,17,14,27,24.80
2018,06,17,14,28,24.80
2018,06,17,14,29,24.90
2018,06,17,14,30,24.90
2018,06,17,14,31,25.00
2018,06,17,14,32,25.10
2018,06,17,14,33,25.20
2018,06,17,14,34,25.30
2018,06,17,14,35,25.30
2018,06,17,14,36,25.30
2018,06,17,14,37,25.30
2018,06,17,14,38,25.30
2018,06,17,14,39,25.20
2018,06,17,14,40,25.00
2018,06,17,14,41,25.00
2018,06,17,14,42,24.90
2018,06,17,14,43,24.70
2018,06,17,14,44,24.70
2018,06,17,14,45,24.70
2018,06,17,14,46,24.70
2018,06,17,14,47,24.70
2018,06,17,14,48,24.70
2018,06,17,14,49,24.80
2018,06,17,14,50,24.80
2018,06,17,14,51,24.80
2018,06,17,14,52,24.80
2018,06,17,14,53,24.80
2018,06,17,14,54,24.80
2018,06,17,14,55,24.90
2018,06,17,14,56,24.90
2018,06,17,14,57,25.00
2018,06,17,14,58,25.00
2018,06,17,14,59,25.00
2018,06,17,15,00,25.00
2018,06,17,15,01,25.00
2018,06,17,15,02,25.10
2018,06,17,15,03,25.10
2018,06,17,15,04,25.20
2018,06,17,15,05,25.20
2018,06,17,15,06,25.20
2018,06,17,15,07,25.20
2018,06,17,15,08,25.20
2018,06,17,15,09,25.10
2018,06,17,15,10,25.00
2018,06,17,15,11,25.00
2018,06,17,15,12,25.00
2018,06,17,15,13,25.00
2018,06,17,15,14,25.10
2018,06,17,15,15,25.20
2018,06,17,15,16,25.30
2018,06,17,15,17,25.40
2018,06,17,15,18,25.40
2018,06,17,15,19,25.50
2018,06,17,15,20,25.60
2018,06,17,15,21,25.60
2018,06,17,15,22,25.60
2018,06,17,15,23,25.60
2018,06,17,15,24,25.60
2018,06,17,15,25,25.70
2018,06,17,15,26,25.80
2018,06,17,15,27,25.80
2018,06,17,15,28,25.80
2018,06,17,15,29,25.80
2018,06,17,15,30,25.90
2018,06,17,15,31,26.00
2018,06,17,15,32,26.10
2018,06,17,15,33,26.20
2018,06,17,15,34,26.30
2018,06,17,15,35,26.40
2018,06,17,15,36,26.50
2018,06,17,15,37,26.60
2018,06,17,15,38,26.70
2018,06,17,15,39,26.80
2018,06,17,15,40,26.80
2018,06,17,15,41,26.80
2018,06,17,15,42,26.90
2018,06,17,15,43,27.00
2018,06,17,15,44,27.10
2018,06,17,15,45,27.30
2018,06,17,15,46,27.40
2018,06,17,15,47,27.50
2018,06,17,15,48,27.70
2018,06,17,15,49,27.80
2018,06,17,15,50,27.90
2018,06,17,15,51,28.00
2018,06,17,15,52,28.10
2018,06,17,15,53,28.20
2018,06,17,15,54,28.30
2018,06,17,15,55,28.30
2018,06,17,15,56,28.30
2018,06,17,15,57,28.40
2018,06,17,15,58,28.40
2018,06,17,15,59,28.40
2018,06,17,16,00,28.50
2018,06,17,16,01,28.50
2018,06,17,16,02,28.60
2018,06,17,16,03,28.60
2018,06,17,16,04,28.70
2018,06,17,16,05,28.70
2018,06,17,16,06,28.80
2018,06,17,16,07,28.80
2018,06,17,16,08,28.70
2018,06,17,16,09,28.70
2018,06,17,16,10,28.70
2018,06,17,16,11,28.60
2018,06,17,16,12,28.60
2018,06,17,16,13,28.60
2018,06,17,16,14,28.60
2018,06,17,16,15,28.70
2018,06,17,16,16,28.70
2018,06,17,16,17,28.70
2018,06,17,16,18,28.80
2018,06,17,16,19,28.80
2018,06,17,16,20,28.80
2018,06,17,16,21,28.80
2018,06,17,16,22,28.80
2018,06,17,16,23,28.90
2018,06,17,16,24,28.90
2018,06,17,16,25,29.00
2018,06,17,16,26,29.10
2018,06,17,16,27,29.20
2018,06,17,16,28,29.20
2018,06,17,16,29,29.30
2018,06,17,16,30,29.30
2018,06,17,16,31,29.30
2018,06,17,16,32,29.30
2018,06,17,16,33,29.30
2018,06,17,16,34,29.30
2018,06,17,16,35,29.20
2018,06,17,16,36,29.10
2018,06,17,16,37,29.10
2018,06,17,16,38,29.00
2018,06,17,16,39,28.90
2018,06,17,16,40,28.90
2018,06,17,16,41,28.90
2018,06,17,16,42,28.90
2018,06,17,16,43,28.80
2018,06,17,16,44,28.80
2018,06,17,16,45,28.80
2018,06,17,16,46,28.80
2018,06,17,16,47,28.80
2018,06,17,16,48,28.80
2018,06,17,16,49,28.80
2018,06,17,16,50,28.80
2018,06,17,16,51,28.80
2018,06,17,16,52,28.80
2018,06,17,16,53,28.90
2018,06,17,16,54,28.90
2018,06,17,16,55,29.00
2018,06,17,16,56,29.00
2018,06,17,16,57,29.10
2018,06,17,16,58,29.20
2018,06,17,16,59,29.20
2018,06,17,17,00,29.20
2018,06,17,17,01,29.20
2018,06,17,17,02,29.20
2018,06,17,17,03,29.10
2018,06,17,17,04,29.10
2018,06,17,17,05,29.10
2018,06,17,17,06,29.00
2018,06,17,17,07,28.90
2018,06,17,17,08,28.90
2018,06,17,17,09,28.80
2018,06,17,17,10,28.70
2018,06,17,17,11,28.80
2018,06,17,17,12,28.80
2018,06,17,17,13,28.80
2018,06,17,17,14,28.80
2018,06,17,17,15,28.90
2018,06,17,17,16,28.90
2018,06,17,17,17,29.00
2018,06,17,17,18,29.10
2018,06,17,17,19,29.20